Location: ???????
(38.3360°N, 23.6977°E)
Time: 13:11:09
(UTC+00:00)

ARIANE 5 R/B - Pass Details

Date: 17 November 2025
Orbit: 746 x 792 km, 98.8° (Epoch: 06 December)

Event Time Altitude Azimuth Distance (km) Brightness Sun altitude
Rises 16:36:06 0° 184° (S) 3,177 5.9 -16.7°
Reaches altitude 10° 16:38:30 10° 191° (SSW) 2,255 5.2 -17.1°
Maximum altitude 16:43:09 40° 261° (W) 1,091 3.9 -18.0°
Drops below altitude 10° 16:47:50 10° 331° (NNW) 2,273 5.2 -18.9°
Sets 16:50:16 0° 339° (NNW) 3,205 5.9 -19.4°
